Regional Weather Roundup
Issued by NWS Charleston, SC

Current Version | Previous Version | Graphics & Text | Print | Product List | Glossary On
Versions: 1 2 3 4 5 6 7 8 9 10 11 12 13 14 15 16 17 18 19 20 21 22 23 24 25 26 27 28 29 30 31 32 33 34 35 36 37 38 39 40 41 42 43 44 45 46 47 48 49 50
000 ASUS42 KCHS 241512 RWRCHS REGIONAL WEATHER ROUNDUP NATIONAL WEATHER SERVICE CHARLESTON SC 1100 AM EDT SAT JUN 24 2017 NOTE: "FAIR" INDICATES FEW OR NO CLOUDS BELOW 12,000 FEET WITH NO SIGNIFICANT WEATHER AND/OR OBSTRUCTIONS TO VISIBILITY. NOT ALL STATIONS ARE QUALITY CONTROLLED. USE DATA WITH CAUTION... ESPECIALLY DEWPOINT OBSERVATIONS. SCZ027-030-031-034>040-042>050-241600- ...SOUTHEAST SOUTH CAROLINA... CITY SKY/WX TMP DP RH WIND PRES REMARKS N CHARLESTON MOSUNNY 87 72 60 W16G22 30.02S HX 93 WATERFRONT PRK N/A 85 75 71 W8 30.00R HX 93 JOHNS ISLAND CLOUDY 88 75 66 SW9G16 30.03R HX 97 PINOPOLIS N/A 82 73 74 SW9 29.94F MONCKS CORNER FAIR 84 68 58 W9 30.02R SUMMERVILLE FAIR 86 70 58 SW6 30.03 HX 90 BEAUFORT MCAS SUNNY 87 75 67 W12 30.03R HX 96 BEAUFORT ARPT NOT AVBL HILTON HEAD IS SUNNY 90 73 58 SW12 30.04R HX 98 WALTERBORO SUNNY 86 70 58 W9 30.03S HX 90 ALLENDALE FAIR 86 73 66 VRB6 30.01S HX 93 ...SOUTHERN MIDLANDS AND PEE DEE... CITY SKY/WX TMP DP RH WIND PRES REMARKS GEORGETOWN FAIR 86 72 62 W14 30.02S HX 92 KINGSTREE FAIR 86 72 62 SW9G16 29.99S HX 92 ORANGEBURG LGT RAIN 85 73 67 W12 30.01S HX 91 BARNWELL CLOUDY 88 75 66 SW7 30.01S HX 97 AIKEN PTSUNNY 84 72 65 W10G17 30.05R MANNING FAIR 86 77 74 W15G29 30.00S HX 97 COLUMBIA PTSUNNY 87 72 60 SW13 29.98S HX 93 SUMTER MOSUNNY 86 73 64 SW13 29.97R HX 92 FLORENCE MOSUNNY 87 75 67 W13 29.98R HX 96 MYRTLE BEACH MOSUNNY 88 73 62 SW14G21 30.00S HX 96 N MYRTLE BEACH MOSUNNY 88 73 61 W13 29.99R HX 95 $$ GAZ063-065-086>088-099>101-113>116-118-119-134>141-150-241600- ...SOUTHEAST GEORGIA... CITY SKY/WX TMP DP RH WIND PRES REMARKS SAVANNAH ARPT MOSUNNY 88 72 58 W8 30.04R HX 94 HUNTER AAF SUNNY 88 73 60 SW7 30.01R HX 96 FORT STEWART SUNNY 87 70 55 W12 30.01S HX 92 STATESBORO SUNNY 86 73 64 SW8 30.03S HX 93 SYLVANIA SUNNY 85 75 71 SW5 30.04S HAZE HX 94 CLAXTON FAIR 84 73 68 SW5 30.03F HX 90 ...CSRA...CENTRAL AND FAR SOUTHEAST GEORGIA... CITY SKY/WX TMP DP RH WIND PRES REMARKS THOMSON PTSUNNY 84 73 68 NW9 30.06S HX 91 AUGUSTA-BUSH MOSUNNY 89 73 59 W13 29.99S HX 97 AUGUSTA-DANIEL MOSUNNY 87 70 56 VRB6 30.01S HX 92 SWAINSBORO PTSUNNY 82 73 74 SW8 30.04S VIDALIA SUNNY 86 72 62 W10 30.04S HX 92 EASTMAN FAIR 85 64 48 SW7 30.06S HAZLEHURST N/A 85 76 74 SW8 30.04S HX 93 ALMA MOSUNNY 86 72 62 VRB7 30.04F HX 92 WAYCROSS MOSUNNY 88 78 73 W8 30.05S HX 101 JESUP FAIR 88 70 55 W6 30.05S HX 92 BAXLEY FAIR 86 77 74 W8 30.04S HX 97 BRUNSWICK SUNNY 88 77 70 W9 30.06R HX 100 SAINT SIMONS SUNNY 87 74 64 SW9 30.05R HX 95 $$ SCZ027-028-034-036>038-045-046-048>050-GAZ119-141-241600- ...LAKE AND SUPPLEMENTAL COASTAL OBSERVATIONS... STATION/POSITION TIME TEMP WIND PRES WAVE SWELL AIR SEA DIR/SP/G HT/PER HT/PER/DIR (UTC) (F) (DEG/KT/KT) (MB) (FT/S) (FT/S/D) WINYAH BAY NOT AVBL LAKE MURRAY 1420 81 240/ 10/ 13 1014.2S ACE BASIN NERRS 1345 84 230/ 4 1017.0 FORT PULASKI 1448 86 83 240/ 8/ 10 1017.2S SAPELO ISLAND 1400 84 230/ 5 1017.0 $$ ANZ835-935-AMZ111-154-330-350-352-354-370-450-454-472-241600- ...C-MAN AND BUOY OBSERVATIONS... STATION/POSITION TIME TEMP WIND PRES WAVE SWELL AIR SEA DIR/SP/G HT/PER HT/PER/DIR (UTC) (F) (DEG/KT/KT) (MB) (FT/S) (FT/S/D) BUOY 41004 1450 81 81 220/ 17/ 21 1016.5R 5/ 6 2/140/ 9 BUOY 41008 1450 81 82 230/ 8/ 8 1017.2R 3/10 3/130/10 FOLLY BEACH CMAN 1400 84 220/ 11/ 17 1017.1R CAPERS NEARSHORE 1408 87 82 250/ 17/ 21 1016.0R FRIPP NEARSHORE 1408 82 83 240/ 14/ 17 1016.3R STATION/POSITION TIME TEMP WIND PRES WAVE SWELL AIR SEA DIR/SP/G HT/PER HT/PER/DIR (UTC) (F) (DEG/KT/KT) (MB) (FT/S) (FT/S/D) 5E ST. MARYS GA 1430 80 N/A 2/ 9 FRYING PAN BUOY 1450 81 81 230/ 19/ 23 1016.1R 6/ 6 2/170/ 9 BUOY 41025 1450 80 80 240/ 23/ 27 1013.9R 9/ 8 2/150/11 CAPE LOOKOUT NC 1400 82 230/ 14/ 21 1013.9R BUOY 41002 1350 81 80 200/ 14/ 16 1018.8 4/ 5 2/ 90/ 9 BUOY 41010 1450 83 83 190/ 10/ 12 1019.3R 4/10 3/140/10 ST AUGUSTINE FL 1500 86 77 250/ 3/ 5 1019.1R $$

USA.gov is the U.S. government's official web portal to all federal, state and local government web resources and services.